Weather History for KIIY - May, 2013

Change the Weather History Date:

Saturday, May 25, 2013

  Actual Average (KDBN) Record (KDBN)
Temperature  
Mean Temperature 65 °F -  
Max Temperature 80 °F 87 °F 101 °F (1953)
Min Temperature 50 °F 60 °F 48 °F (1931)
Growing Degree Days 15 (Base 50)    
Moisture  
Dew Point 47 °F    
Average Humidity 56    
Maximum Humidity 94    
Minimum Humidity 28    
Precipitation  
Precipitation 0.00 in - - ()
Sea Level Pressure  
Sea Level Pressure 30.25 in    
Wind  
Wind Speed 3 mph (WNW)    
Max Wind Speed 8 mph    
Max Gust Speed -    
Visibility 10 miles    
Events      
Averages and records for this station are not official NWS values.
T = Trace of Precipitation, MM = Missing Value Source: NWS Daily Summary

Daily Weather History Graph

Daily Weather History Graph

Search for Another Location

Airport or City:

Trip Planner

Search our weather history database for the weather conditions in past years. The results will help you decide how hot, cold, wet, or windy it might be!

Date:

Astronomy

May. 25, 2013 Rise Set
Actual Time 6:24 AM EDT 8:32 PM EDT
Civil Twilight 5:55 AM EDT 9:00 PM EDT
Nautical Twilight 5:21 AM EDT 9:35 PM EDT
Astronomical Twilight 4:44 AM EDT 10:12 PM EDT
Moon 9:19 PM EDT (5/25) 6:49 AM EDT (5/25)
Length of Visible Light 15h 04m
Length of Day
14h 08m
Full, 100% of the Moon is Illuminated
May 25
Full
May 31
Last Quarter
Jun 8
New
Jun 16
First Quarter
Jun 23
Full

Hourly Weather History & Observations

Time (EDT) Temp. Dew Point Humidity Pressure Visibility Wind Dir Wind Speed Gust Speed Precip Events Conditions
12:15 AM 59.0 °F 51.8 °F 77% 30.20 in 10.0 mi NNE 3.5 mph - N/A   Clear
12:35 AM 59.0 °F 50.0 °F 72% 30.21 in 10.0 mi NE 3.5 mph - N/A   Clear
12:55 AM 57.2 °F 48.2 °F 72% 30.21 in 10.0 mi NE 4.6 mph - N/A   Clear
1:15 AM 59.0 °F 46.4 °F 63% 30.21 in 10.0 mi NE 3.5 mph - N/A   Clear
1:35 AM 53.6 °F 46.4 °F 77% 30.22 in 10.0 mi Calm Calm - N/A   Clear
1:55 AM 53.6 °F 44.6 °F 72% 30.22 in 10.0 mi NE 3.5 mph - N/A   Clear
2:15 AM 53.6 °F 46.4 °F 77% 30.22 in 10.0 mi NE 5.8 mph - N/A   Clear
2:35 AM 53.6 °F 44.6 °F 72% 30.22 in 10.0 mi NNE 4.6 mph - N/A   Clear
2:55 AM 53.6 °F 42.8 °F 67% 30.22 in 10.0 mi NNE 3.5 mph - N/A   Clear
3:15 AM 53.6 °F 44.6 °F 72% 30.22 in 10.0 mi Calm Calm - N/A   Clear
3:35 AM 53.6 °F 42.8 °F 67% 30.21 in 10.0 mi NE 4.6 mph - N/A   Clear
3:55 AM 51.8 °F 46.4 °F 82% 30.22 in 10.0 mi NE 3.5 mph - N/A   Clear
4:15 AM 51.8 °F 46.4 °F 82% 30.22 in 10.0 mi NE 3.5 mph - N/A   Clear
4:35 AM 51.8 °F 44.6 °F 76% 30.23 in 10.0 mi Calm Calm - N/A   Clear
4:55 AM 51.8 °F 44.6 °F 76% 30.24 in 10.0 mi NE 4.6 mph - N/A   Clear
5:15 AM 53.6 °F 44.6 °F 72% 30.24 in 10.0 mi NNE 3.5 mph - N/A   Clear
5:35 AM 51.8 °F 44.6 °F 76% 30.24 in 10.0 mi North 3.5 mph - N/A   Clear
5:55 AM 51.8 °F 46.4 °F 82% 30.26 in 10.0 mi Calm Calm - N/A   Clear
6:15 AM 50.0 °F 46.4 °F 87% 30.27 in 10.0 mi Calm Calm - N/A   Clear
6:35 AM 50.0 °F 46.4 °F 87% 30.27 in 10.0 mi Calm Calm - N/A   Clear
6:55 AM 50.0 °F 46.4 °F 87% 30.28 in 10.0 mi Calm Calm - N/A   Clear
7:15 AM 51.8 °F 50.0 °F 94% 30.29 in 10.0 mi Calm Calm - N/A   Clear
7:35 AM 53.6 °F 48.2 °F 82% 30.29 in 10.0 mi Calm Calm - N/A   Clear
7:55 AM 57.2 °F 50.0 °F 77% 30.30 in 10.0 mi Calm Calm - N/A   Clear
8:15 AM 59.0 °F 48.2 °F 67% 30.30 in 10.0 mi East 3.5 mph - N/A   Clear
8:35 AM 59.0 °F 46.4 °F 63% 30.31 in 10.0 mi East 5.8 mph - N/A   Clear
8:55 AM 60.8 °F 44.6 °F 55% 30.31 in 10.0 mi East 5.8 mph - N/A   Clear
9:15 AM 62.6 °F 44.6 °F 52% 30.32 in 10.0 mi East 5.8 mph - N/A   Clear
9:35 AM 62.6 °F 42.8 °F 48% 30.33 in 10.0 mi ESE 3.5 mph - N/A   Clear
9:55 AM 64.4 °F 42.8 °F 45% 30.33 in 10.0 mi ENE 5.8 mph - N/A   Clear
10:15 AM 64.4 °F 41.0 °F 42% 30.33 in 10.0 mi East 5.8 mph - N/A   Clear
10:35 AM 66.2 °F 42.8 °F 43% 30.34 in 10.0 mi SSE 4.6 mph - N/A   Clear
10:55 AM 66.2 °F 41.0 °F 40% 30.34 in 10.0 mi NE 3.5 mph - N/A   Clear
11:15 AM 68.0 °F 42.8 °F 40% 30.33 in 10.0 mi Calm Calm - N/A   Clear
11:35 AM 68.0 °F 41.0 °F 37% 30.32 in 10.0 mi Calm Calm - N/A   Clear
11:55 AM 69.8 °F 42.8 °F 38% 30.32 in 10.0 mi Calm Calm - N/A   Clear
12:15 PM 69.8 °F 42.8 °F 38% 30.32 in 10.0 mi SSE 3.5 mph - N/A   Clear
12:35 PM 71.6 °F 44.6 °F 38% 30.31 in 10.0 mi South 4.6 mph - N/A   Clear
12:55 PM 71.6 °F 42.8 °F 35% 30.30 in 10.0 mi Calm Calm - N/A   Clear
1:15 PM 75.2 °F 46.4 °F 36% 30.31 in 10.0 mi WSW 5.8 mph - N/A   Clear
1:35 PM 75.2 °F 44.6 °F 34% 30.30 in 10.0 mi Calm Calm - N/A   Clear
1:55 PM 75.2 °F 46.4 °F 36% 30.28 in 10.0 mi SSW 5.8 mph - N/A   Clear
2:15 PM 75.2 °F 42.8 °F 31% 30.26 in 10.0 mi West 3.5 mph - N/A   Clear
2:35 PM 75.2 °F 42.8 °F 31% 30.25 in 10.0 mi West 3.5 mph - N/A   Clear
2:55 PM 75.2 °F 42.8 °F 31% 30.25 in 10.0 mi West 3.5 mph - N/A   Clear
3:15 PM 77.0 °F 42.8 °F 29% 30.25 in 10.0 mi WSW 3.5 mph - N/A   Clear
3:35 PM 77.0 °F 42.8 °F 29% 30.23 in 10.0 mi NW 6.9 mph - N/A   Clear
3:55 PM 77.0 °F 44.6 °F 32% 30.23 in 10.0 mi WSW 4.6 mph - N/A   Clear
4:15 PM 80.6 °F 44.6 °F 28% 30.23 in 10.0 mi WSW 5.8 mph - N/A   Clear
4:35 PM 80.6 °F 44.6 °F 28% 30.22 in 10.0 mi West 4.6 mph - N/A   Clear
4:55 PM 80.6 °F 44.6 °F 28% 30.21 in 10.0 mi WSW 4.6 mph - N/A   Clear
5:15 PM 80.6 °F 44.6 °F 28% 30.21 in 10.0 mi WSW 5.8 mph - N/A   Clear
5:35 PM 80.6 °F 44.6 °F 28% 30.21 in 10.0 mi West 6.9 mph - N/A   Clear
5:55 PM 80.6 °F 44.6 °F 28% 30.21 in 10.0 mi West 8.1 mph - N/A   Clear
6:15 PM 80.6 °F 46.4 °F 30% 30.21 in 10.0 mi WSW 3.5 mph - N/A   Clear
6:35 PM 80.6 °F 46.4 °F 30% 30.20 in 10.0 mi West 8.1 mph - N/A   Clear
6:55 PM 78.8 °F 46.4 °F 32% 30.20 in 10.0 mi West 5.8 mph - N/A   Clear
7:15 PM 78.8 °F 46.4 °F 32% 30.20 in 10.0 mi West 3.5 mph - N/A   Clear
7:35 PM 77.0 °F 46.4 °F 34% 30.20 in 10.0 mi West 3.5 mph - N/A   Clear
7:55 PM 75.2 °F 50.0 °F 41% 30.20 in 10.0 mi WSW 3.5 mph - N/A   Clear
8:15 PM 71.6 °F 53.6 °F 53% 30.20 in 10.0 mi SW 3.5 mph - N/A   Clear
8:35 PM 68.0 °F 53.6 °F 60% 30.19 in 10.0 mi SW 3.5 mph - N/A   Clear
8:55 PM 64.4 °F 53.6 °F 68% 30.19 in 10.0 mi Calm Calm - N/A   Clear
9:15 PM 64.4 °F 53.6 °F 68% 30.19 in 10.0 mi Calm Calm - N/A   Clear
9:35 PM 62.6 °F 53.6 °F 72% 30.19 in 10.0 mi Calm Calm - N/A   Clear
9:55 PM 62.6 °F 53.6 °F 72% 30.20 in 10.0 mi Calm Calm - N/A   Clear
10:15 PM 62.6 °F 55.4 °F 77% 30.20 in 10.0 mi Calm Calm - N/A   Clear
10:35 PM 59.0 °F 55.4 °F 88% 30.20 in 10.0 mi South 3.5 mph - N/A   Clear
10:55 PM 62.6 °F 53.6 °F 72% 30.20 in 10.0 mi Calm Calm - N/A   Clear
11:15 PM 60.8 °F 51.8 °F 72% 30.20 in 10.0 mi SSW 3.5 mph - N/A   Clear
11:35 PM 60.8 °F 51.8 °F 72% 30.20 in 10.0 mi Calm Calm - N/A   Clear
11:55 PM 60.8 °F 51.8 °F 72% 30.19 in 10.0 mi SSW 4.6 mph - N/A   Clear